COSMOS 2251 DEB, 35706

Orbit data source: Space-Track

COSMOS 2251 DEB, 35706 is space debris in LEO originally from a launch on Wed, 16 Jun 1993 UTC launched from the Plesetsk Missile And Space Complex (PKMTR). The debris from Iridium 33, an American commercial communications satellite, has been tracked extensively since its accidental collision with the defunct Russian satellite Cosmos 2251 in 2009. This event, occurring at high speed in low Earth orbit (LEO), generated thousands of pieces of space debris, significantly increasing the risk of further collisions. The Iridium 33 debris cloud has impacted space traffic management and orbital debris mitigation strategies, making it a subject of ongoing study in space situational awareness.

Loading next visibility...
Identifier
35706, 1993-036AQB
Orbit
LEO
Country
Flag of CISCIS
Related business
Manufacturer
Unknown
Mission
Spacecraft
Bus & Motor
Unknown
Mass
Unknown
Launch date (UTC)
1993-06-16 (33 years ago)
Launch vehicle
Unknown
Launch site
Plesetsk Missile And Space Complex (PKMTR)
Object type
Payload
Rocket body
Debris
Shape & HBR
Unknown shape, 0.1 m
Radar Cross Section
Small (<0.1 m²)

Expand to show TLE details & history
Last TLE update: 1 day ago

TLE from 1 day ago
0 COSMOS 2251 DEB
1 35706U 93036AQB 26177.47818897  .00001175  00000-0  95973-3 0  9997
2 35706  73.8865  99.2386 0343717 113.6424 250.1167 13.66477113647359
Epoch: 2026-06-26T11:28Z
TLE epoch observation values (Epoch: 2026-06-26T11:28:35.527Z)
Latitude
-0.00005°
Longitude
12.48443°
Altitude
1,108.763 km
Speed
7.252 km/s
True Right ascension
06h 36m 57s
True Declination
0° 00' 00"
Sunlit
Object was in daylight at epoch
Visualization orbit readout
Latitude
Unknown
Longitude
Unknown
Altitude
Unknown
Speed
Unknown
Apparent Right ascension
Unknown
Apparent Declination
Unknown
Sunlit
N/A
Visualization observer readout
Local Sidereal Time
03:40:11
Azimuth
Unknown
Elevation
Unknown
Doppler factor
Unknown
Orbital elements
Apogee altitude
1,263.897 km
Perigee altitude
756.014 km
Semi-major axis
7,388.093 km
Eccentricity
0.03437
Inclination
73.8865°
RAAN
99.2386°
Arg. of periapsis
113.6424°
True anomaly
246.46863°
Mean anomaly
250.1167°
Eccentric anomaly
248.28707°
Mean motion
3.41778 °/min
Orbital period
105.33 mins
BSTAR
0.00095973
Loading maneuver chart data...
Computing Atmospheric mass density...

Documentation

Showing up to 5 results
|